LRCVLGKR

Guest
Details From LRCV - CRAIOVA
To LGKR - IOANNIS KAPODISTRIAS INTL
Flight Number -
Tags generated
Created
Modified
Stats Distance 346 nm / 641 km
Max Altitude 34,000 ft / 10,363 m
Waypoints 7
Social Downloads 1
Likes 0
Share VATSIM

Download

Looking for another format? Having issues loading an existing format? Contact us
Advertisement - Login to hide

Notes

Basic altitude profile: - Ascent Rate: 2000ft/min - Ascent Speed: 250kts - Cruise Altitude: 28000ft - Cruise Speed: 300kts - Descent Rate: 1500ft/min - Descent Speed: 220kts Options: - Use NATs: yes - Use PACOTS: yes - Use low airways: yes - Use high airways: yes

Route

LRCV OKANA RAXAD UN140 NASKO UW49 TALAS BITLA LGKR

ID Type Via Altitude Latitude Longitude Leg Dist Tot Dist Heading (true) Name
O LRCV APT - 0 ft / 0 m 44.31815˚ 23.88854˚ - 0 nm - CRAIOVA
OKANA FIX - 34,000 ft / 10,363 m 42.84639˚ 22.49306˚ 107 nm 107 nm 215° / 214° -
RAXAD FIX - 34,000 ft / 10,363 m 42.30742˚ 22.24208˚ 34 nm 141 nm 199° / 199° -
NASKO FIX UN140 (AWY-HI) 34,000 ft / 10,363 m 41.76694˚ 22.09778˚ 33 nm 174 nm 191° / 191° -
TALAS FIX UW49 (AWY-HI) 26,700 ft / 8,138 m 41.07667˚ 21.91667˚ 42 nm 216 nm 191° / 191° -
BITLA FIX - 20,600 ft / 6,279 m 40.87556˚ 21.35806˚ 28 nm 244 nm 245° / 244° -
O LGKR APT - 0 ft / 0 m 39.60178˚ 19.91191˚ 101 nm 346 nm 221° / 220° IOANNIS KAPODISTRIAS INTL

Altitude Profile

Advertisement - Login to hide

Weather


0- 5 10 15 20 25 30 35+ Temperature / ° C

Clouds and Precipitation
Forecast for 2017-12-14 12:00 UTC. Updated an hour ago

Ground ~20,000 ft ~40,000 ft Winds

LRCV

Details ICAO LRCV (CRA)
Name CRAIOVA
Region Romania
Timezone Europe/Bucharest (UTC+2.0)
Stats Elevation 626 ft / 191 m (AMSL)
Location 44.318152° 23.888541°
Runways 1
Magnetic Variation 5.217° E

METAR

LRCV 140800Z AUTO 22007KT BKN085 05/03 Q1012

Decode

TAF

Not found

Departure Runways

ID Width Length Bearing (true) Bearing (mag) Surface Threshold Offset Overrun Length
09 148 ft / 45 m 8,146 ft / 2,483 m 88.92° 83.70° Concrete 0 ft / 0 m 0 ft / 0 m
27 148 ft / 45 m 8,146 ft / 2,483 m 268.94° 263.72° Concrete 0 ft / 0 m 0 ft / 0 m

LGKR

Details ICAO LGKR (CFU)
Name IOANNIS KAPODISTRIAS INTL
Region Greece
Timezone Europe/Athens (UTC+2.0)
Stats Elevation 6 ft / 2 m (AMSL)
Location 39.601779° 19.911908°
Runways 1
Magnetic Variation 4.098° E

METAR

LGKR 140750Z 29003KT 9999 FEW030 14/11 Q1018 NOSIG

Decode

TAF

TAF LGKR 140500Z 1406/1506 32010KT 9999 SCT014 BKN025 BKN080 PROB30 TEMPO 1406/1409 5000 RA BECMG 1410/1412 FEW018 BECMG 1417/1419 16012KT SCT016 BKN030

Decode

Destination Runways

ID Width Length Bearing (true) Bearing (mag) Surface Threshold Offset Overrun Length
17 148 ft / 45 m 7,815 ft / 2,382 m 168.81° 164.71° Asphalt 1,348 ft / 411 m 0 ft / 0 m
35 148 ft / 45 m 7,815 ft / 2,382 m 348.81° 344.71° Asphalt 213 ft / 65 m 0 ft / 0 m

Popular Alternatives